Вернуться в каталог

STARLINK-30257

АктивенСвязьVLEO
NORAD 57526·PAYLOAD·🇺🇸 United States

Запущен Aug 8, 2023 с Vandenberg Space Force Base

Loading…

Ближайшие Пролёты (ближайшие 24 часа)

TLE

СвежийSource: CelesTrak SupGP

Эпоха: Sep 15, 2026, 03:03 UTC

1 57526C 23115F   26258.12756944  .00017142  00000+0  62086-3 0  2585
2 57526  43.0014  11.8694 0001506 263.2548  47.7133 15.27570134    11

Отслеживайте STARLINK-30257 в реальном времени с AllMySat

Download on the App Store